Regional Weather Roundup
Issued by NWS

Home | Current Version | Previous Version | Graphics & Text | Print | Product List | Glossary On
Versions: 1 2 3 4 5 6 7 8 9 10 11 12 13 14 15 16 17 18 19 20 21 22 23 24 25 26 27 28 29 30 31 32 33 34 35 36 37 38 39 40 41 42 43 44 45 46 47 48 49 50
700
ASUS43 KIND 281059
RWRIN

WEATHER ROUNDUP FOR INDIANA
NATIONAL WEATHER SERVICE INDIANAPOLIS IN
700 AM EDT FRI APR 28 2017

NOTE: "FAIR" INDICATES FEW OR NO CLOUDS BELOW 12,000 FEET WITH NO
SIGNIFICANT WEATHER AND/OR OBSTRUCTIONS TO VISIBILITY.

* - STATION DOES NOT REPORT WEATHER SUCH AS PRECIPITATION OR FOG.

+ - STATION NOT QUALITY CONTROLLED BY THE NATIONAL WEATHER SERVICE.
    USE DATA WITH CAUTION...ESPECIALLY DEWPOINT AND RELATIVE
    HUMIDITY OBSERVATIONS.

INZ001>003-010>013-019-020-281200-
NORTHWEST INDIANA

CITY           SKY/WX    TMP DP  RH WIND       PRES   REMARKS
GARY /AIRPORT/ MOCLDY    45  43  93 VRB3      29.93R
MONTICELLO +   CLOUDY    45  41  88 S5        29.95R
RENSSELAER +   PTCLDY    45  41  87 S7        29.94R

$$

LMZ046-743>745-281200-
SOUTHERN LAKE MICHIGAN

STATION/POSITION TIME  TEMP    WIND        PRES    WAVE
                       AIR SEA DIR/SP/G            HT
                 (UTC) (F)     (DEG/KT/KT) (MB)    (FT)
BURNS HARBOR     1040   47        CALM     1013.2R
MICHIGAN CITY    1030   45     360/  2/  2   N/A
5NW MICH CITY    1050   45 46                N/A     1

$$

INZ004-005-014>016-021>024-281200-
NORTH CENTRAL INDIANA

CITY           SKY/WX    TMP DP  RH WIND       PRES   REMARKS
ELKHART        CLOUDY    41  39  93 CALM      29.90
GOSHEN         CLOUDY    44  38  79 S6        29.91R
SOUTH BEND     MOCLDY    43  40  89 S3        29.91R

$$

INZ006>009-017-018-025>027-281200-
NORTHEAST INDIANA

CITY           SKY/WX    TMP DP  RH WIND       PRES   REMARKS
ANGOLA *+      PTCLDY    43  39  87 CALM      29.91R
FORT WAYNE     CLOUDY    45  41  86 S5        29.93R
KENDALLVILLE + CLOUDY    41  38  89 CALM      29.92R

$$

INZ028-029-035-036-043>045-051>053-281200-
WEST CENTRAL INDIANA

CITY           SKY/WX    TMP DP  RH WIND       PRES   REMARKS
CRAWFORDSVL +  CLOUDY    44  44 100 S3        29.97R
GREENCASTLE +  MOCLDY    46  43  87 CALM      30.00R
LAFAYETTE      CLOUDY    45  43  93 CALM      29.96R
TERRE HAUTE    MOCLDY    48  44  86 E3        29.97R

$$

INZ030>032-037>040-046>048-054>057-064-065-281200-
CENTRAL INDIANA

CITY           SKY/WX    TMP DP  RH WIND       PRES   REMARKS
COLUMBUS       MOCLDY    48  45  87 SE6       29.96
INDIANAPOLIS   CLOUDY    48  44  86 NE13      29.92R
-EAGLE CREEK   MOCLDY    48  43  82 E6        29.93R
KOKOMO +       CLOUDY    46  43  89 S5        29.97R
SHELBYVILLE    CLOUDY    50  43  77 E7        29.95R

$$

INZ033-034-041-042-049-050-058-059-281200-
EAST CENTRAL INDIANA

CITY           SKY/WX    TMP DP  RH WIND       PRES   REMARKS
MUNCIE         CLOUDY    47  42  83 S3        29.95R
RICHMOND +     CLOUDY    43  41  93 SE7       29.98R

$$

INZ060-061-067>069-081>083-085>088-281200-
SOUTHWEST INDIANA

CITY           SKY/WX    TMP DP  RH WIND       PRES   REMARKS
EVANSVILLE     CLOUDY    52  47  83 NE7       29.92F
HUNTINGBURG *+ CLOUDY    49  47  93 E7        29.95R

$$

INZ062-063-066-070>080-084-089>092-281200-
SOUTH CENTRAL AND SOUTHEAST INDIANA

CITY           SKY/WX    TMP DP  RH WIND       PRES   REMARKS
BLOOMINGTON    CLOUDY    47  44  90 SE7       29.95R
MADISON *+     CLOUDY    46  45  93 E5        30.00R
SEYMOUR +      CLOUDY    48  46  93 S5        29.98R

$$





USA.gov is the U.S. government's official web portal to all federal, state and local government web resources and services.